Météo par heure à Allières

Ce jour, 15 Mai, Samedi

Heure Température Précipitation Vent Pression Humidité
00:00 +1°C° 0 mm 1 m/s 639 mmHg 86%
01:00 +1°C° 0 mm 1 m/s 638 mmHg 84%
02:00 +2°C° 0 mm 1 m/s 638 mmHg 83%
03:00 +2°C° 0 mm 1 m/s 638 mmHg 81%
04:00 +2°C° 0 mm 1 m/s 638 mmHg 79%
05:00 +3°C° 0 mm 1 m/s 638 mmHg 78%
06:00 +4°C° 0 mm 1 m/s 639 mmHg 77%
07:00 +4°C° 0.4 mm 1 m/s 639 mmHg 81%
08:00 +4°C° 0.4 mm 1 m/s 639 mmHg 86%
09:00 +4°C° 0.4 mm 1 m/s 639 mmHg 90%
10:00 +3°C° 0.9 mm 2 m/s 638 mmHg 92%
11:00 +3°C° 0.9 mm 2 m/s 638 mmHg 94%
12:00 +3°C° 0.9 mm 2 m/s 638 mmHg 96%
13:00 +3°C° 0.7 mm 2 m/s 638 mmHg 96%
14:00 +3°C° 0.7 mm 2 m/s 638 mmHg 96%
15:00 +3°C° 0.7 mm 2 m/s 638 mmHg 96%
16:00 +3°C° 0.5 mm 2 m/s 638 mmHg 96%
17:00 +3°C° 0.5 mm 2 m/s 638 mmHg 96%
18:00 +3°C° 0.5 mm 2 m/s 638 mmHg 96%
19:00 +4°C° 0.1 mm 1 m/s 638 mmHg 96%
20:00 +5°C° 0.1 mm 1 m/s 639 mmHg 95%
21:00 +5°C° 0.1 mm 1 m/s 639 mmHg 95%
22:00 +4°C° 0 mm 1 m/s 639 mmHg 94%
23:00 +4°C° 0 mm 1 m/s 638 mmHg 94%

Demain, 16 Mai, Dimanche

Heure Température Précipitation Vent Pression Humidité
00:00 +4°C° 0 mm 1 m/s 638 mmHg 94%
01:00 +4°C° 0 mm 1 m/s 638 mmHg 94%
02:00 +4°C° 0 mm 1 m/s 637 mmHg 93%
03:00 +4°C° 0 mm 1 m/s 637 mmHg 93%
04:00 +4°C° 0.3 mm 1 m/s 637 mmHg 94%
05:00 +4°C° 0.3 mm 1 m/s 637 mmHg 94%
06:00 +5°C° 0.3 mm 1 m/s 637 mmHg 95%
07:00 +5°C° 0.2 mm 2 m/s 637 mmHg 92%
08:00 +6°C° 0.2 mm 2 m/s 638 mmHg 89%
09:00 +7°C° 0.2 mm 3 m/s 638 mmHg 87%
10:00 +7°C° 0.3 mm 2 m/s 638 mmHg 88%
11:00 +8°C° 0.3 mm 2 m/s 638 mmHg 89%
12:00 +8°C° 0.3 mm 2 m/s 638 mmHg 90%
13:00 +7°C° 2 mm 2 m/s 638 mmHg 92%
14:00 +7°C° 2 mm 2 m/s 638 mmHg 93%
15:00 +6°C° 2 mm 2 m/s 639 mmHg 95%
16:00 +7°C° 1.3 mm 1 m/s 639 mmHg 95%
17:00 +6°C° 1.3 mm 1 m/s 639 mmHg 94%
18:00 +6°C° 1.3 mm 1 m/s 639 mmHg 94%
19:00 +5°C° 0.3 mm 1 m/s 639 mmHg 94%
20:00 +5°C° 0.3 mm 1 m/s 639 mmHg 93%
21:00 +5°C° 0.3 mm 1 m/s 639 mmHg 92%
22:00 +4°C° 0.1 mm 1 m/s 639 mmHg 92%
23:00 +3°C° 0.1 mm 1 m/s 639 mmHg 91%

Après-demain, 17 Mai, Lundi

Heure Température Précipitation Vent Pression Humidité
00:00 +3°C° 0.1 mm 1 m/s 639 mmHg 91%
01:00 +2°C° 0 mm 1 m/s 638 mmHg 91%
02:00 +2°C° 0 mm 1 m/s 638 mmHg 92%
03:00 +1°C° 0 mm 1 m/s 638 mmHg 93%
04:00 +2°C° 0 mm 1 m/s 639 mmHg 92%
05:00 +3°C° 0 mm 1 m/s 639 mmHg 91%
06:00 +4°C° 0 mm 1 m/s 640 mmHg 89%
07:00 +5°C° 0 mm 1 m/s 640 mmHg 79%
08:00 +6°C° 0 mm 1 m/s 641 mmHg 68%
09:00 +7°C° 0 mm 2 m/s 641 mmHg 58%
10:00 +7°C° 0 mm 2 m/s 641 mmHg 54%
11:00 +8°C° 0 mm 2 m/s 641 mmHg 51%
12:00 +9°C° 0 mm 2 m/s 642 mmHg 47%
13:00 +9°C° 0 mm 2 m/s 642 mmHg 48%
14:00 +9°C° 0 mm 2 m/s 642 mmHg 49%
15:00 +9°C° 0 mm 2 m/s 642 mmHg 50%
16:00 +8°C° 0.2 mm 2 m/s 641 mmHg 61%
17:00 +7°C° 0.2 mm 2 m/s 641 mmHg 71%
18:00 +6°C° 0.2 mm 1 m/s 641 mmHg 82%
19:00 +5°C° 0.4 mm 1 m/s 642 mmHg 85%
20:00 +5°C° 0.4 mm 1 m/s 642 mmHg 89%
21:00 +4°C° 0.4 mm 1 m/s 642 mmHg 93%
22:00 +4°C° 0.5 mm 1 m/s 642 mmHg 93%
23:00 +3°C° 0.5 mm 1 m/s 642 mmHg 93%

18 Mai, Mardi

Heure Température Précipitation Vent Pression Humidité
00:00 +3°C° 0.5 mm 1 m/s 642 mmHg 93%
01:00 +2°C° 0.2 mm 1 m/s 642 mmHg 93%
02:00 +1°C° 0.2 mm 1 m/s 642 mmHg 94%
03:00 +1°C° 0.2 mm 1 m/s 642 mmHg 95%
04:00 +1°C° 0.1 mm 1 m/s 643 mmHg 94%
05:00 +2°C° 0.1 mm 1 m/s 643 mmHg 93%
06:00 +2°C° 0.1 mm 2 m/s 644 mmHg 92%
07:00 +2°C° 0.2 mm 2 m/s 644 mmHg 87%
08:00 +3°C° 0.2 mm 2 m/s 644 mmHg 83%
09:00 +3°C° 0.2 mm 3 m/s 645 mmHg 79%
10:00 +4°C° 0.2 mm 3 m/s 645 mmHg 73%
11:00 +4°C° 0.2 mm 3 m/s 645 mmHg 68%
12:00 +5°C° 0.2 mm 3 m/s 646 mmHg 62%
13:00 +7°C° 0.1 mm 3 m/s 646 mmHg 60%
14:00 +7°C° 0.1 mm 3 m/s 645 mmHg 58%
15:00 +7°C° 0.1 mm 3 m/s 645 mmHg 56%
16:00 +7°C° 0 mm 3 m/s 645 mmHg 61%
17:00 +6°C° 0 mm 2 m/s 645 mmHg 66%
18:00 +5°C° 0 mm 2 m/s 645 mmHg 71%
19:00 +4°C° 0 mm 2 m/s 645 mmHg 75%
20:00 +3°C° 0 mm 1 m/s 646 mmHg 79%
21:00 +2°C° 0 mm 1 m/s 646 mmHg 84%
22:00 +2°C° 0 mm 1 m/s 646 mmHg 85%
23:00 +1°C° 0 mm 1 m/s 645 mmHg 86%

19 Mai, Mercredi

Heure Température Précipitation Vent Pression Humidité
00:00 +1°C° 0 mm 1 m/s 645 mmHg 87%
01:00 +1°C° 0 mm 1 m/s 645 mmHg 88%
02:00 0°C° 0 mm 1 m/s 645 mmHg 88%
03:00 0°C° 0 mm 1 m/s 645 mmHg 89%
04:00 +1°C° 0 mm 1 m/s 645 mmHg 86%
05:00 +2°C° 0 mm 1 m/s 645 mmHg 82%
06:00 +4°C° 0 mm 1 m/s 646 mmHg 79%
07:00 +4°C° 0 mm 2 m/s 646 mmHg 73%
08:00 +5°C° 0 mm 2 m/s 646 mmHg 66%
09:00 +7°C° 0 mm 3 m/s 647 mmHg 60%
10:00 +7°C° 0.1 mm 3 m/s 647 mmHg 58%
11:00 +8°C° 0.1 mm 3 m/s 647 mmHg 57%
12:00 +9°C° 0.1 mm 3 m/s 647 mmHg 55%
13:00 +8°C° 0.1 mm 3 m/s 647 mmHg 56%
14:00 +8°C° 0.1 mm 3 m/s 646 mmHg 56%
15:00 +7°C° 0.1 mm 4 m/s 646 mmHg 57%
16:00 +7°C° 0 mm 3 m/s 646 mmHg 62%
17:00 +7°C° 0 mm 3 m/s 646 mmHg 67%
18:00 +6°C° 0 mm 2 m/s 646 mmHg 73%
19:00 +4°C° 0 mm 2 m/s 646 mmHg 78%
20:00 +2°C° 0 mm 2 m/s 645 mmHg 83%
21:00 +2°C° 0 mm 1 m/s 645 mmHg 88%
22:00 +2°C° 0 mm 1 m/s 645 mmHg 87%
23:00 +1°C° 0 mm 1 m/s 645 mmHg 86%

20 Mai, Jeudi

Heure Température Précipitation Vent Pression Humidité
00:00 +1°C° 0 mm 1 m/s 644 mmHg 85%
01:00 +1°C° 0 mm 1 m/s 644 mmHg 82%
02:00 +1°C° 0 mm 1 m/s 644 mmHg 79%
03:00 +1°C° 0 mm 1 m/s 644 mmHg 76%
04:00 +2°C° 0 mm 1 m/s 644 mmHg 70%
05:00 +4°C° 0 mm 1 m/s 644 mmHg 64%
06:00 +5°C° 0 mm 1 m/s 645 mmHg 58%
07:00 +7°C° 0 mm 1 m/s 645 mmHg 51%
08:00 +10°C° 0 mm 1 m/s 645 mmHg 43%
09:00 +12°C° 0 mm 1 m/s 646 mmHg 36%
10:00 +13°C° 0 mm 1 m/s 646 mmHg 36%
11:00 +14°C° 0 mm 2 m/s 646 mmHg 36%
12:00 +16°C° 0 mm 2 m/s 646 mmHg 36%
13:00 +16°C° 0 mm 2 m/s 646 mmHg 38%
14:00 +16°C° 0 mm 2 m/s 646 mmHg 41%
15:00 +16°C° 0 mm 2 m/s 646 mmHg 43%
16:00 +14°C° 0 mm 2 m/s 646 mmHg 54%
17:00 +12°C° 0 mm 2 m/s 645 mmHg 64%
18:00 +10°C° 0 mm 2 m/s 645 mmHg 74%
19:00 +8°C° 0.4 mm 2 m/s 645 mmHg 79%
20:00 +8°C° 0.4 mm 1 m/s 645 mmHg 85%
21:00 +7°C° 0.4 mm 1 m/s 645 mmHg 90%
22:00 +6°C° 0.2 mm 1 m/s 645 mmHg 90%
23:00 +6°C° 0.2 mm 1 m/s 644 mmHg 91%
Voir plus

Nous avons besoin de votre consentement

Meteoprog et ses fournisseurs de services peuvent stocker et accéder à des données personnelles telles que des cookies, des identifiants d'appareils ou d'autres technologies similaires sur votre appareil et traiter ces données pour personnaliser le contenu et les publicités, ainsi que pour fournir des fonctionnalités de médias sociaux et analyser le trafic.

  • Stocker et/ou accéder à des informations sur votre appareil

    Des cookies, des identifiants d'appareils ou d'autres informations peuvent être stockés ou accessibles sur votre appareil aux fins indiquées ci-dessus.

  • Annonces et contenus personnalisés, mesure des annonces et des contenus, connaissance de l'audience et développement de produits

    Les annonces et le contenu peuvent être personnalisés en fonction d'un profil. D'autres données peuvent être ajoutées pour mieux personnaliser les annonces et le contenu. Les performances des publicités et du contenu peuvent être mesurées. Il est possible d'obtenir des informations sur le public qui a vu les publicités et le contenu. Ces données peuvent être utilisées pour développer ou améliorer l'expérience de l'utilisateur, les systèmes et les logiciels.

En cliquant sur "J'accepte", vous autorisez l'utilisation de cookies, des identifiants d'appareils, des balises web ou d'autres technologies similaires. Vos paramètres peuvent être modifiés dans le navigateur de votre appareil.

Dans certains cas, des intérêts légitimes peuvent être invoqués plutôt qu'un consentement. Vous pouvez en savoir plus à ce sujet dans notre Politique de confidentialité et de cookies.